Regional Weather Roundup
Issued by NWS Kansas City/Pleasant Hill, MO

Home | Current Version | Previous Version | Graphics & Text | Print | Product List | Glossary Off
Versions: 1 2 3 4 5 6 7 8 9 10 11 12 13 14 15 16 17 18 19 20 21 22 23 24 25 26 27 28 29 30 31 32 33 34 35 36 37 38 39 40 41 42 43 44 45 46 47 48 49 50

000
ASUS43 KEAX 012311
RWREAX

WEATHER ROUNDUP FOR EASTERN KANSAS AND NORTHWEST MISSOURI
NATIONAL WEATHER SERVICE KANSAS CITY/PLEASANT HILL MO
600 PM CDT MON JUN 01 2015

KSZ040-057-103>105-MOZ028-029-037-043-020000-
...KANSAS CITY METROPOLITAN AREA...

CITY           SKY/WX    TMP DP  RH WIND       PRES   REMARKS
K.C. INTL      CLOUDY    65  55  70 SE10      30.13S
K.C. DOWNTOWN  CLOUDY    66  53  63 E6        30.12F
LEES SUMMIT    CLOUDY    63  54  72 E8        30.14S
OLATHE - IXD   CLOUDY    63  54  72 E9        30.13F
OLATHE - OJC   CLOUDY    63  54  72 SE8       30.12F
LAWRENCE       CLOUDY    67  54  63 E12       30.11F

$$

MOZ001>008-011>017-020>025-030>033-038>040-044>046-053-054-020000-
...NORTHERN AND CENTRAL MISSOURI...

CITY           SKY/WX    TMP DP  RH WIND       PRES   REMARKS
ST. JOSEPH     PTSUNNY   68  56  65 E6        30.11F
MOSBY          CLOUDY    64  54  68 E5        30.13S
HARRISONVILLE  CLOUDY    64  55  72 E5        30.15F
WARRENSBURG    CLOUDY    61  54  77 NE3       30.15R
WHITEMAN AFB   CLOUDY    63  55  75 E5        30.13F
CLINTON        CLOUDY    63  55  77 E6        30.14F
SEDALIA        CLOUDY    63  54  72 CALM      30.15F
WARSAW         CLOUDY    61  54  77 CALM      30.15S
CHILLICOTHE      N/A     65  55  70 E5        30.15F
MOBERLY        CLOUDY    63  52  67 CALM      30.16F
KIRKSVILLE     CLOUDY    62  55  77 CALM      30.16S

$$

MOZ041-047>049-056>058-063>065-088>090-097-020000-
...EASTERN AND SOUTHERN MISSOURI...

CITY           SKY/WX    TMP DP  RH WIND       PRES   REMARKS
ST. LOUIS INTL NOT AVBL
SPIRIT OF STL  CLOUDY    63  57  81 NW6       30.12F
COLUMBIA       CLOUDY    63  55  75 E5        30.14S
JEFFERSON CITY CLOUDY    64  54  69 CALM      30.13F
ROLLA          CLOUDY    59  55  87 N8        30.12S
LEBANON        CLOUDY    61  55  82 N7        30.13F
OSAGE BEACH    CLOUDY    61  54  77 NE5       30.14S
SPRINGFIELD    SUNNY     68  56  65 N12       30.10S
BRANSON        MOSUNNY   70  59  68 CALM      30.10F
NEVADA         MOSUNNY   66  57  72 NE8       30.13S
JOPLIN         MOSUNNY   71  55  56 E8        30.08F
WEST PLAINS    CLOUDY    65  56  72 NE7       30.11S

$$

IAZ060-094-KSZ022-034>040-054-083-096-NEZ052-066-093-020000-
...KANSAS...SOUTHEAST NEBRASKA AND IOWA...

CITY           SKY/WX    TMP DP  RH WIND       PRES   REMARKS
TOPEKA         PTSUNNY   70  56  61 E14       30.10F
MANHATTAN      MOSUNNY   73  56  54 S10       30.06F
EMPORIA        MOSUNNY   71  57  61 E13       30.08F
CHANUTE        MOSUNNY   69  57  65 E7        30.09F
WICHITA        MOSUNNY   76  56  49 SE9       30.04F
OMAHA          MOSUNNY   74  51  44 S16       30.07F
LINCOLN        SUNNY     75  54  47 S12       30.06S
FALLS CITY     SUNNY     72  53  51 SE9       30.08F
LAMONI         MOSUNNY   72  53  51 E6        30.12F
DES MOINES     MOSUNNY   72  44  36 SE10      30.12F

$$




USA.gov is the U.S. government's official web portal to all federal, state and local government web resources and services.